This is the latest recevied weather packets stored in our database for station/object K5FEP. If no packets are shown the sender has not sent any weather packets the latest 10 day(s).
| Time | Temp. | Humidity | Pressure | Rain* | Wind** | Luminosity | Snow |
|---|---|---|---|---|---|---|---|
| 1788567103 | 26.67° C | 77% | 1013.5 hPa | 1.78 mm | - | 0 W/m² | - |
| 1788566798 | 27.22° C | 73% | 1013.8 hPa | 6.1 mm | - | 0 W/m² | - |
| 1788566494 | 30.56° C | 65% | 1013.6 hPa | 3.05 mm | - | 0 W/m² | - |
| 1788566194 | 31.11° C | 55% | 1013.3 hPa | 0 mm | - | 0 W/m² | - |
| 1788565893 | 32.78° C | 51% | 1012.8 hPa | 0 mm | - | 0 W/m² | - |
| 1788565589 | 32.78° C | 48% | 1012.6 hPa | 0 mm | - | 0 W/m² | - |
| 1788565284 | 33.33° C | 48% | 1012.2 hPa | 0 mm | - | 1 W/m² | - |
| 1788564980 | 33.33° C | 48% | 1012.3 hPa | 0 mm | - | 1 W/m² | - |
| 1788564676 | 33.33° C | 47% | 1012.1 hPa | 0 mm | - | 2 W/m² | - |
| 1788564372 | 33.89° C | 46% | 1011.9 hPa | 0 mm | - | 4 W/m² | - |
| 1788564068 | 33.89° C | 45% | 1012.1 hPa | 0 mm | - | 6 W/m² | - |
| 1788563764 | 34.44° C | 44% | 1012.1 hPa | 0 mm | - | 9 W/m² | - |
| 1788563458 | 34.44° C | 45% | 1012.2 hPa | 0 mm | - | 13 W/m² | - |
| 1788563157 | 34.44° C | 44% | 1012.1 hPa | 0 mm | - | 18 W/m² | - |
| 1788562853 | 34.44° C | 45% | 1011.7 hPa | 0 mm | - | 42 W/m² | - |
| 1788562550 | 34.44° C | 45% | 1011.7 hPa | 0 mm | - | 49 W/m² | - |
| 1788562245 | 35° C | 46% | 1011.5 hPa | 0 mm | - | 54 W/m² | - |
| 1788561940 | 35° C | 45% | 1011.4 hPa | 0 mm | - | 47 W/m² | - |
| 1788561640 | 35° C | 44% | 1011.4 hPa | 0 mm | - | 64 W/m² | - |
| 1788561339 | 35° C | 43% | 1011.4 hPa | 0 mm | - | 95 W/m² | - |
| 1788561035 | 34.44° C | 43% | 1011.2 hPa | 0 mm | - | 117 W/m² | - |
| 1788560730 | 34.44° C | 40% | 1011 hPa | 0 mm | - | 116 W/m² | - |
| 1788560426 | 33.89° C | 43% | 1011.2 hPa | 0 mm | - | 136 W/m² | - |
| 1788560120 | 33.89° C | 43% | 1011.1 hPa | 0 mm | - | 53 W/m² | - |
| 1788559815 | 34.44° C | 45% | 1011.2 hPa | 0 mm | - | 62 W/m² | - |
* Rain latest hour (hover to see other rain measurements)
** Current wind speed in m/s (hover to see current wind gust speed)